Wind_Speed
14 13 11 10 9 7 5 5 3 2 1 1 1 1 1 3 3 3 5 5 6 6 6 7 8 8 8 7 7 6 6 5 5 5 5 6 7 8 9 10 12 14 16
17 15 13 12 11 9 7 7 5 3 2 0 1 1 2 3 4 4 5 5 6 6 6 6 7 8 9 9 9 9 8 8 7 7 6 6 7 8 8 10 11 12 13
20 18 15 14 13 12 10 9 6 5 2 2 2 3 4 4 5 5 6 6 7 7 6 6 7 7 8 8 8 9 9 9 9 8 8 8 7 8 8 10 10 11 12
22 20 18 17 16 15 13 12 9 7 4 4 5 6 6 6 7 8 8 8 8 8 7 7 7 8 9 8 8 8 9 9 9 9 8 8 9 8 9 9 10 11 11
25 22 20 19 18 18 17 15 12 9 7 7 6 8 9 9 9 11 11 10 11 10 9 9 9 8 8 8 8 8 8 9 9 9 8 9 9 9 10 10 11 11 11
27 24 22 20 20 19 19 17 15 13 11 10 9 9 10 11 11 11 13 12 13 12 12 12 11 10 9 7 7 7 8 7 8 9 10 11 12 11 11 11 11 12 11
28 26 25 23 22 21 20 21 19 16 14 13 12 12 11 12 12 12 12 13 13 13 10 10 9 8 8 6 5 6 6 7 8 10 11 12 14 14 14 14 14 14 13
28 27 26 25 24 23 23 23 21 19 17 16 15 12 12 12 12 12 13 11 9 8 5 5 5 4 4 6 6 6 7 8 9 10 12 13 14 14 15 15 15 15 14
28 28 27 26 26 25 25 25 24 22 20 19 17 14 13 13 12 11 11 10 8 7 6 5 4 5 5 5 7 7 8 9 9 11 12 13 15 15 15 15 15 14 13
28 30 29 27 27 27 27 26 25 24 22 22 19 16 14 14 13 13 11 11 9 9 8 8 8 7 8 9 10 10 10 11 12 13 14 15 15 16 16 15 14 14 13
29 30 31 30 29 28 26 26 26 25 25 23 21 18 16 16 16 15 13 13 13 11 9 9 9 10 11 11 12 12 13 14 14 14 14 14 14 15 15 15 14 14 15
37 31 33 32 30 29 27 26 26 26 26 24 23 20 18 18 18 18 15 14 14 14 13 13 12 13 14 13 14 15 16 16 16 15 15 16 15 16 16 15 16 16 16
27 30 32 32 31 28 27 26 26 27 27 26 24 22 20 19 19 19 18 17 17 18 15 16 15 16 16 16 17 19 19 17 17 17 16 17 16 17 17 18 18 18 17
33 23 30 29 27 27 27 28 28 28 28 27 25 23 21 21 22 22 20 20 20 19 18 17 17 18 19 19 18 19 21 21 21 19 19 19 18 19 19 18 17 16 17
37 28 28 26 29 30 30 30 30 30 28 28 28 24 25 24 24 23 22 22 21 21 21 21 22 22 23 23 21 21 22 22 22 21 21 21 20 20 19 18 18 19 20
34 28 34 32 25 33 33 32 32 31 31 33 30 27 27 25 26 25 24 24 24 24 24 25 25 25 25 24 24 23 22 23 23 23 21 20 21 22 21 21 22 23 25
41 41 26 35 32 31 35 35 36 35 36 35 32 30 28 27 27 26 27 26 26 26 26 26 25 26 26 26 25 23 23 24 26 25 25 25 24 26 27 28 28 29 30
42 41 44 33 33 30 38 40 42 38 36 35 33 32 31 30 29 29 29 29 29 28 26 27 28 29 29 27 25 24 25 26 28 29 28 29 31 29 30 30 32 33 35
41 45 45 33 35 36 31 36 39 42 43 40 37 38 35 33 31 31 32 32 31 32 31 30 30 28 28 26 26 26 24 26 28 29 29 28 31 32 34 35 37 38 38
41 41 36 31 34 35 36 33 34 42 43 46 43 39 35 35 36 35 34 35 34 33 32 31 30 30 27 27 27 25 26 26 28 29 31 33 35 36 36 36 38 38 39
43 41 40 37 34 33 29 35 37 36 42 44 44 41 37 37 38 37 36 34 35 35 33 31 33 35 33 31 29 29 28 30 32 33 34 36 37 37 39 41 40 42 43
44 40 35 35 39 35 35 31 35 41 44 49 49 43 37 38 41 42 40 39 40 38 34 34 33 36 36 35 34 35 35 33 34 34 34 37 37 38 40 43 44 46 48
43 40 39 38 36 33 34 35 35 42 46 46 42 41 40 41 44 44 41 44 40 40 40 38 36 38 40 39 40 42 38 29 29 31 34 38 41 45 48 49 50 51 52
47 41 40 38 38 38 36 39 43 35 48 44 41 39 43 46 43 40 45 42 47 43 42 41 38 41 39 38 36 30 29 30 34 37 39 43 46 48 51 52 53 55 57
47 45 43 41 42 38 36 28 32 41 37 40 42 40 39 45 46 49 54 47 44 44 49 43 41 43 38 35 31 21 29 35 42 44 47 46 50 51 54 56 56 56 56
45 48 48 47 45 39 37 38 37 36 35 26 39 35 34 36 39 50 44 44 41 35 34 29 18 15 17 24 27 33 39 43 45 46 48 51 51 51 53 56 59 62 65
Wind_Direction
232 229 223 213 209 201 188 173 166 151 125 94 56 18 345 316 307 307 299 298 286 281 278 278 277 272 266 258 258 266 274 281 296 311 318 326 328 331 335 338 345 352 358
232 233 230 225 219 210 206 198 200 201 203 285 303 316 312 299 293 297 289 296 291 291 291 286 283 277 271 268 266 267 270 278 289 298 307 313 320 322 327 327 340 346 350
235 234 234 235 226 220 216 219 220 218 251 285 312 313 301 288 285 286 288 291 293 300 310 308 299 289 283 275 271 270 272 276 284 295 303 309 313 317 320 323 329 334 341
234 234 233 236 233 227 221 225 229 228 246 281 307 316 315 306 286 274 267 267 274 281 287 294 298 299 294 288 280 278 275 277 281 285 294 300 307 311 311 315 317 322 329
235 234 234 233 233 234 228 226 232 234 246 269 294 303 302 299 298 279 267 266 267 269 273 279 282 283 285 287 285 281 278 276 282 285 289 292 299 305 308 309 309 309 314
232 233 232 230 234 232 233 229 232 233 244 264 285 295 299 294 295 293 279 268 269 270 274 276 276 277 277 276 276 279 278 278 285 290 293 296 298 301 302 303 303 302 304
231 230 232 230 231 233 233 232 231 235 244 257 273 290 296 293 292 296 284 274 273 271 274 273 272 271 276 274 274 280 279 280 283 286 293 297 298 303 303 304 304 303 301
231 229 228 227 228 229 230 233 234 238 245 255 266 280 288 286 285 293 292 279 270 270 264 272 273 268 264 281 281 281 282 284 288 290 292 293 293 295 296 299 298 297 297
229 228 228 225 226 226 230 232 235 240 247 254 259 273 281 283 279 282 285 290 270 267 272 272 286 293 302 295 293 289 281 279 281 282 284 284 283 284 287 288 289 292 292
227 228 225 225 224 225 228 232 236 242 248 254 255 263 270 275 275 272 274 278 272 267 266 277 286 290 290 287 282 281 278 280 281 279 277 278 281 284 286 287 290 289 285
233 230 224 221 225 226 229 234 238 244 249 254 256 259 263 266 266 266 266 268 269 265 264 260 269 278 279 278 276 276 276 277 276 270 275 278 282 287 286 284 283 283 287
242 224 223 222 222 227 232 237 243 248 250 252 255 259 260 264 265 267 263 264 264 264 263 268 270 274 273 273 274 274 271 272 271 272 273 272 271 275 278 282 285 284 284
229 237 218 222 223 225 232 239 243 246 248 250 252 256 259 264 265 264 263 262 262 262 266 269 273 273 274 275 276 275 271 269 268 267 270 272 276 279 281 281 281 283 285
230 228 223 224 228 227 232 238 241 244 248 250 252 255 258 259 259 259 258 260 264 265 266 268 270 271 273 272 272 273 272 269 271 272 272 272 276 278 279 278 277 277 283
236 230 230 233 230 232 231 236 241 243 245 253 251 252 257 257 258 258 258 258 260 264 267 269 270 271 270 269 270 272 273 274 273 273 274 273 273 271 270 270 272 275 278
232 225 234 232 243 233 230 231 235 236 253 252 248 252 254 257 258 257 258 261 263 269 272 272 270 268 264 266 263 264 267 268 270 270 271 269 269 269 268 268 273 278 280
241 234 234 232 237 235 230 230 231 239 245 245 246 251 253 255 256 258 261 264 266 268 270 270 270 268 265 266 262 261 265 268 270 267 267 265 266 270 274 276 276 276 278
232 236 241 242 233 239 235 229 234 230 233 240 245 254 253 255 258 261 264 267 267 264 267 267 266 267 266 263 263 265 267 266 265 263 264 267 268 271 273 274 277 278 278
228 233 232 228 228 237 232 238 240 243 239 237 245 253 252 255 258 262 265 265 265 264 264 264 264 262 260 263 267 264 262 266 268 266 265 265 266 269 272 273 274 274 275
225 229 235 229 231 238 232 244 248 242 244 249 245 246 250 257 261 260 265 266 266 262 263 262 259 260 261 263 260 260 263 265 264 265 268 269 272 273 273 273 273 275 277
223 226 229 234 237 236 229 244 246 242 242 241 241 244 252 258 261 265 268 266 267 268 268 262 261 263 263 261 257 257 263 263 266 270 272 272 269 269 271 274 276 275 275
218 230 227 233 235 242 242 252 247 246 245 245 245 249 252 259 265 269 267 271 272 270 264 263 263 265 262 259 262 257 257 263 267 269 273 272 273 274 275 275 278 280 281
211 219 227 227 231 236 239 247 252 248 253 246 250 254 255 261 263 269 266 269 272 266 262 265 267 264 263 258 263 261 259 264 267 270 272 275 277 278 277 279 280 281 281
208 208 219 222 225 229 238 250 249 256 244 248 253 256 260 265 265 265 266 263 260 263 269 271 261 261 271 269 262 257 263 269 271 273 276 276 275 278 279 280 282 282 282
207 208 214 224 226 236 245 245 253 260 249 262 248 258 257 258 256 258 268 267 272 271 275 273 262 269 261 259 262 262 269 268 267 269 274 276 278 280 281 282 283 284 283
207 210 212 223 232 234 240 247 247 256 258 264 243 253 258 259 260 262 269 270 265 266 270 253 260 271 269 262 254 256 264 267 273 278 280 283 283 284 283 284 284 284 283
Height
5886 5887 5887 5888 5888 5889 5889 5889 5889 5889 5889 5889 5889 5889 5889 5888 5888 5888 5888 5888 5888 5888 5889 5889 5889 5890 5890 5890 5890 5890 5890 5889 5888 5887 5887 5885 5885 5883 5881 5879 5877 5875 5873
5882 5884 5885 5886 5886 5886 5887 5888 5888 5888 5888 5888 5888 5888 5888 5887 5887 5887 5887 5888 5887 5887 5887 5887 5888 5888 5888 5888 5889 5889 5889 5888 5888 5887 5886 5885 5884 5883 5882 5880 5878 5876 5874
5880 5881 5882 5884 5883 5884 5885 5886 5886 5887 5887 5887 5887 5887 5887 5887 5886 5886 5885 5886 5886 5886 5886 5886 5886 5887 5887 5887 5887 5887 5887 5887 5887 5886 5886 5885 5884 5883 5881 5880 5878 5876 5874
5876 5878 5879 5880 5881 5882 5882 5883 5884 5885 5885 5886 5886 5885 5885 5885 5885 5884 5883 5883 5883 5883 5884 5884 5884 5884 5885 5885 5885 5885 5886 5885 5885 5885 5884 5884 5883 5882 5881 5880 5878 5877 5875
5872 5874 5875 5876 5878 5879 5880 5881 5882 5883 5883 5884 5884 5884 5883 5884 5883 5881 5881 5881 5881 5880 5881 5881 5881 5882 5882 5882 5883 5883 5883 5883 5884 5884 5883 5883 5882 5881 5880 5879 5879 5877 5876
5867 5869 5871 5872 5874 5875 5878 5878 5879 5880 5881 5882 5882 5882 5882 5881 5881 5880 5879 5879 5879 5878 5878 5878 5879 5879 5879 5880 5881 5881 5881 5881 5881 5882 5882 5882 5881 5880 5880 5879 5878 5877 5875
5863 5865 5866 5868 5870 5872 5874 5875 5876 5877 5878 5879 5879 5880 5880 5879 5879 5878 5877 5877 5877 5877 5876 5876 5876 5877 5877 5877 5878 5879 5879 5879 5880 5879 5879 5879 5879 5879 5878 5877 5877 5875 5874
5857 5860 5862 5864 5865 5867 5870 5872 5873 5874 5875 5876 5876 5877 5877 5877 5877 5877 5876 5876 5875 5875 5874 5874 5875 5875 5875 5876 5876 5876 5876 5877 5877 5877 5877 5876 5876 5876 5875 5875 5874 5874 5873
5852 5854 5857 5860 5861 5863 5865 5868 5870 5871 5872 5873 5873 5874 5874 5875 5874 5874 5875 5874 5875 5874 5873 5873 5873 5874 5874 5874 5874 5874 5874 5874 5874 5874 5874 5874 5873 5872 5872 5871 5871 5871 5871
5847 5850 5852 5855 5857 5859 5861 5864 5866 5867 5868 5869 5870 5871 5871 5871 5872 5873 5872 5873 5872 5873 5872 5872 5872 5872 5872 5872 5872 5871 5871 5871 5871 5871 5871 5870 5870 5869 5869 5868 5868 5868 5868
5843 5845 5847 5849 5852 5854 5857 5859 5861 5863 5865 5865 5867 5867 5867 5868 5868 5869 5869 5870 5870 5870 5869 5868 5869 5869 5869 5869 5869 5868 5868 5868 5867 5867 5867 5867 5867 5867 5866 5866 5865 5865 5865
5837 5838 5841 5843 5846 5850 5852 5855 5857 5859 5860 5862 5863 5863 5863 5864 5865 5865 5865 5866 5865 5867 5866 5866 5865 5865 5866 5865 5865 5865 5864 5863 5863 5863 5863 5864 5863 5863 5863 5863 5863 5862 5862
5830 5832 5834 5838 5841 5844 5847 5850 5852 5854 5856 5858 5858 5859 5860 5860 5861 5861 5862 5862 5862 5863 5861 5862 5861 5862 5862 5862 5861 5862 5861 5860 5859 5859 5859 5860 5860 5861 5861 5860 5860 5860 5860
5824 5826 5830 5834 5838 5838 5841 5844 5847 5849 5850 5853 5854 5855 5855 5856 5856 5857 5857 5857 5858 5858 5858 5857 5857 5857 5857 5857 5855 5856 5857 5857 5858 5856 5856 5855 5855 5856 5856 5856 5856 5856 5857
5816 5820 5824 5825 5830 5832 5835 5838 5841 5844 5846 5847 5849 5849 5851 5851 5851 5851 5852 5852 5853 5853 5853 5852 5852 5851 5852 5851 5850 5851 5851 5852 5853 5852 5852 5853 5852 5852 5852 5852 5852 5853 5852
5805 5813 5816 5821 5824 5827 5829 5832 5835 5838 5841 5842 5844 5844 5845 5846 5846 5846 5846 5847 5847 5847 5847 5847 5847 5846 5846 5846 5844 5844 5845 5846 5846 5847 5847 5848 5848 5848 5848 5847 5847 5847 5847
5800 5803 5806 5813 5816 5821 5822 5825 5828 5831 5834 5837 5838 5839 5840 5840 5840 5840 5841 5841 5841 5842 5841 5842 5841 5842 5841 5841 5840 5839 5840 5841 5841 5842 5841 5841 5842 5842 5843 5843 5842 5842 5841
5795 5801 5802 5807 5810 5812 5815 5818 5821 5824 5827 5830 5832 5833 5835 5835 5835 5835 5835 5835 5835 5835 5835 5835 5836 5836 5837 5836 5835 5835 5836 5835 5836 5836 5835 5835 5836 5836 5836 5835 5835 5834 5833
5788 5792 5785 5799 5802 5806 5809 5812 5816 5819 5820 5823 5825 5827 5829 5829 5829 5829 5829 5829 5829 5828 5828 5829 5829 5829 5829 5829 5829 5829 5827 5828 5830 5830 5830 5829 5829 5829 5828 5827 5826 5825 5824
5780 5783 5787 5792 5797 5800 5802 5807 5809 5812 5815 5816 5817 5819 5821 5822 5822 5822 5823 5823 5822 5821 5821 5822 5822 5823 5823 5823 5822 5822 5823 5823 5823 5822 5823 5822 5822 5822 5820 5819 5818 5817 5816
5773 5778 5783 5787 5792 5795 5799 5802 5804 5807 5808 5808 5809 5811 5813 5814 5815 5816 5816 5817 5816 5816 5816 5815 5816 5817 5817 5816 5816 5815 5817 5816 5816 5817 5816 5815 5813 5813 5812 5810 5809 5807 5805
5765 5772 5777 5782 5786 5790 5794 5795 5797 5800 5800 5800 5802 5804 5806 5807 5809 5809 5808 5809 5809 5809 5809 5808 5807 5809 5809 5809 5809 5809 5807 5808 5808 5807 5806 5805 5804 5803 5802 5801 5799 5798 5796
5757 5766 5770 5776 5781 5785 5787 5789 5789 5791 5792 5794 5796 5797 5797 5799 5800 5799 5799 5800 5800 5800 5800 5799 5799 5801 5801 5799 5799 5799 5799 5798 5797 5797 5795 5794 5793 5793 5791 5789 5787 5785 5783
5750 5759 5764 5769 5773 5777 5779 5781 5783 5783 5787 5789 5790 5790 5790 5790 5791 5791 5791 5791 5791 5790 5791 5791 5790 5790 5792 5791 5791 5790 5791 5790 5789 5788 5786 5785 5783 5781 5780 5778 5775 5773 5771
5744 5753 5758 5762 5759 5771 5765 5770 5776 5778 5779 5779 5781 5783 5783 5782 5783 5784 5782 5783 5782 5780 5783 5782 5782 5784 5782 5784 5783 5782 5784 5783 5781 5777 5775 5776 5772 5770 5768 5765 5762 5759 5757
5737 5745 5752 5757 5757 5751 5765 5768 5770 5771 5771 5770 5773 5774 5774 5774 5774 5773 5773 5773 5773 5773 5774 5775 5776 5777 5776 5776 5775 5774 5774 5774 5772 5768 5765 5762 5762 5758 5755 5752 5748 5745 5742